User: anonymous   Login
Location: Unspecified
(0.0000°N, 0.0000°E)
Time: 07:02:59
(UTC+00:00)
Language:

GRIFEX - Orbit

View from above orbital plane
View from above orbital plane
View from above satellite
View from above satellite

Ground track
Ground track

The orbit data is extracted from the following two-line orbital elements,

1 40379U 15003D   18048.86370653  .00001791  00000-0  82866-4 0  9993
2 40379  99.1059 283.6641 0138416 278.2480  80.3070 15.13965343168049
Epoch (UTC): 17 February 2018 20:43:44
Eccentricity: 0.0138416
inclination: 99.1059°
perigee height: 428 km
apogee height: 619 km
right ascension of ascending node: 283.6641°
argument of perigee: 278.2480°
revolutions per day: 15.13965343
mean anomaly at epoch: 80.3070°
orbit number at epoch: 16804

The dashed part of the orbit path shows where the satellite is in the earth's shadow,  

DLR